"Pseudo-MPEC" for P11l8oe

Created 2021 Sep 20 16:07:09 UT using Find_Orb

Click here for an explanation of pseudo-MPECs

 
 Astrometry: 
     P11l8oe  C2021 09 13Hc8W(@etKlIB4L,a6]tRNYyEaNe\IP*fh;obZChLF0`r!bSuo'TnF51
     P11l8oe  C2021 09 13]S/1Astrometry?l5IP!7FpSmA-9QG1GIN!DC(S7f,FQ%lfNCBeCF51
     P11l8oe  C2021 09 138sI`:0yFXem[9n%\Q2MqsMHx@iM=1l`#ec=Zt=,\sguhF1sY8jR?F51
     P11l8oe  C2021 09 14lP_[WVFJp$i4AIb8Ont#5IE[4nL.redacted;lT++jb6ffnVT6YNW86
     P11l8oe  C2021 09 14cd#fyLe5a))gk*3y5siQ5ZUNN0amJkpjDv/Y7l=%]G8]6eAT`_05W86
     P11l8oe  C2021 09 14g@S)F-kJR6GaI^Tf=kg0NWuUyPo8`*Z8/Zl=Hd0edR@UsP^Q%mPUW86
     P11l8oe  C2021 09 14bhoGH)9W+NDHv`f`%iJWcZQm(r12NMwtI'gZEsbiA9).y.QJ@:*KW86
     P11l8oe |C2021 09 15a-Yg?a:click?_iB@V#?OebK$kY$Sd(sXfD?hQxhereUJ`Ijy82s807
     P11l8oe |C2021 09 15oi8xUI3Efor\7x?rX_pwMP\Lj,pCx]GLTF[.IoS,,+`#?eNpmPOV807
     P11l8oe |C2021 09 15j5'34dO[j][Lk+Axk'*Qaap'5AN?AWP2mWy'AOefx7X)20tn:%/V807
     P11l8oe |C2021 09 15P6kqdelv;XirXJmaf2M$_explanationGjpu^dUn@+^fV#QHyF'B807
     P11l8oe  C2021 09 15r_l?2QM+Ug,F7\*!7RvBkbxHm!9'C1@iP@U[H`7im]OA'fNWbs?:F51
     P11l8oe  C2021 09 15Af:B%v?jp.tk=Vm$G\K*b%C@-!\tvGajC@@b17J_\hoOl1qMqpk3F51
     P11l8oe  C2021 09 15K':F#;aG9'B!l3LRon!x`/1\(x,M2XTX1u?24TjmApy6d4$rw573F51
     P11l8oe  C2021 09 15q5@x!RR[d=W)OE]^iP%_)#^*'V\pGoA7i?8AKt_h+hr*VtV[Y:Q7F51

Station data:
(807) Cerro Tololo Observatory, La Serena  (S30.169136 W70.805900)  Chile.
(F51) Pan-STARRS 1, Haleakala  (N20.707235 W156.255910)  US/Hawaii.
   Observers N. Primak, A. Schultz, S. Watters, J. Thiel, T. Goggia. Measurer
   PS1 Science Consortium. 1.8-m Ritchey-Chrétien + CCD.
(W86) Cerro Tololo-LCO B  (S30.167328 W70.804670)  Chile.  Observer T. Lister.
    1.0-m f/8 Ritchey-Chrétien + CCD.

Orbital elements:  P11l8oe
   Perihelion 2023 Aug 28.830645 +/- 548.187 TT = 19:56:07 (JD 2460185.330645)
Epoch 2021 Sep 15.0 TT = JDT 2459472.5   Ju: 0.6982           AutoNEOCP
M 299.40983265 +/- 57.764391        (J2000 ecliptic)
n   0.08499938 +/- 0.0477613        Peri.   38.09455 +/- 89.761872
a   5.12301376 +/- 1.91905          Node    98.05216 +/- 9.6534004
e   0.2698829 +/- 0.2365            Incl.   30.44229 +/- 2.6207769
P  11.60                   H 14.5   G  0.15   U 10.7  SR
q 3.74039960 +/- 1.17655    Q 6.50562791 +/- 22.2186
From 15 observations 2021 Sept. 13-15; mean residual 0".18
Residuals in arcseconds: 
210913 F51  .00   .07+    210914 W86  .13+  .01+    210915 807  .05-  .05+    
210913 F51  .12-  .10+    210914 W86  .02+  .18-    210915 F51  .24-  .03-    
210913 F51  .13-  .04+    210915 807  .27+  .07+    210915 F51  .46-  .57+    
210914 W86  .05+  .12-    210915 807  .18+  .09-    210915 F51  .04+  .10-    
210914 W86  .09+  .01-    210915 807  .20+  .28-    210915 F51  .01+  .11-    

Ephemerides (geocentric):
Date (UTC) HH   RA              Dec         delta   r     elong  mag " sig PA
---- -- -- --  -------------   -----------  ------ ------ -----  --- ---- ---
2021 09 20 16  04 18 30.382   -05 40 28.36  4.2811 4.7663 113.2 21.7 36.4 175
2021 09 20 17  04 18 30.427   -05 40 35.61  4.2805 4.7663 113.2 21.7 36.9 175
2021 09 20 18  04 18 30.471   -05 40 42.87  4.2799 4.7662 113.2 21.7 37.4 175
2021 09 20 19  04 18 30.514   -05 40 50.12  4.2793 4.7661 113.3 21.7 37.9 175
2021 09 20 20  04 18 30.555   -05 40 57.38  4.2787 4.7660 113.3 21.7 38.5 175
2021 09 20 21  04 18 30.594   -05 41 04.63  4.2781 4.7659 113.3 21.7 39.0 175
2021 09 20 22  04 18 30.632   -05 41 11.89  4.2775 4.7658 113.4 21.7 39.5 175
2021 09 20 23  04 18 30.669   -05 41 19.15  4.2769 4.7657 113.4 21.7 40.1 175
2021 09 21 00  04 18 30.704   -05 41 26.41  4.2763 4.7656 113.4 21.7 40.6 175
2021 09 21 01  04 18 30.738   -05 41 33.67  4.2757 4.7655 113.5 21.7 41.2 175
2021 09 21 02  04 18 30.770   -05 41 40.94  4.2751 4.7655 113.5 21.7 41.7 175
2021 09 21 03  04 18 30.801   -05 41 48.20  4.2745 4.7654 113.6 21.7 42.3 175
2021 09 21 04  04 18 30.830   -05 41 55.47  4.2739 4.7653 113.6 21.7 42.8 175
2021 09 21 05  04 18 30.858   -05 42 02.74  4.2732 4.7652 113.6 21.7 43.4 175
2021 09 21 06  04 18 30.884   -05 42 10.01  4.2726 4.7651 113.7 21.7 44.0 175
2021 09 21 07  04 18 30.909   -05 42 17.28  4.2720 4.7650 113.7 21.7 44.5 175
2021 09 21 08  04 18 30.932   -05 42 24.55  4.2714 4.7649 113.7 21.7 45.1 175
2021 09 21 09  04 18 30.954   -05 42 31.83  4.2708 4.7648 113.8 21.7 45.7 175
2021 09 21 10  04 18 30.974   -05 42 39.10  4.2702 4.7647 113.8 21.7 46.3 175
2021 09 21 11  04 18 30.993   -05 42 46.38  4.2696 4.7647 113.8 21.7 46.9 175
2021 09 21 12  04 18 31.011   -05 42 53.66  4.2690 4.7646 113.9 21.7 47.5 175
2021 09 21 13  04 18 31.027   -05 43 00.94  4.2684 4.7645 113.9 21.7 48.1 175
2021 09 21 14  04 18 31.041   -05 43 08.22  4.2678 4.7644 113.9 21.7 48.7 175
2021 09 21 15  04 18 31.054   -05 43 15.50  4.2672 4.7643 114.0 21.7 49.3 175
2021 09 21 16  04 18 31.065   -05 43 22.78  4.2666 4.7642 114.0 21.7 49.9 175
2021 09 21 17  04 18 31.075   -05 43 30.07  4.2660 4.7641 114.0 21.7 50.5 175
2021 09 21 18  04 18 31.084   -05 43 37.35  4.2654 4.7640 114.1 21.7 51.1 175
2021 09 21 19  04 18 31.091   -05 43 44.64  4.2648 4.7639 114.1 21.7 51.7 175
2021 09 21 20  04 18 31.096   -05 43 51.93  4.2642 4.7639 114.2 21.7 52.3 175
2021 09 21 21  04 18 31.101   -05 43 59.22  4.2636 4.7638 114.2 21.7 52.9 175
2021 09 21 22  04 18 31.103   -05 44 06.51  4.2630 4.7637 114.2 21.7 53.6 175
2021 09 21 23  04 18 31.104   -05 44 13.80  4.2624 4.7636 114.3 21.7 54.2 175
2021 09 22 00  04 18 31.104   -05 44 21.09  4.2618 4.7635 114.3 21.7 54.8 175
2021 09 22 01  04 18 31.102   -05 44 28.39  4.2612 4.7634 114.3 21.7 55.5 175
2021 09 22 02  04 18 31.099   -05 44 35.68  4.2606 4.7633 114.4 21.7 56.1 175
2021 09 22 03  04 18 31.094   -05 44 42.98  4.2600 4.7632 114.4 21.7 56.8 175
2021 09 22 04  04 18 31.087   -05 44 50.28  4.2595 4.7631 114.4 21.7 57.4 175
2021 09 22 05  04 18 31.079   -05 44 57.58  4.2589 4.7631 114.5 21.7 58.1 175
2021 09 22 06  04 18 31.070   -05 45 04.88  4.2583 4.7630 114.5 21.7 58.7 175
2021 09 22 07  04 18 31.059   -05 45 12.18  4.2577 4.7629 114.5 21.7 59.4 175
2021 09 22 08  04 18 31.047   -05 45 19.48  4.2571 4.7628 114.6 21.7 60.1 175
2021 09 22 09  04 18 31.033   -05 45 26.79  4.2565 4.7627 114.6 21.7 60.7 175
2021 09 22 10  04 18 31.018   -05 45 34.09  4.2559 4.7626 114.6 21.7 61.4 175
2021 09 22 11  04 18 31.001   -05 45 41.40  4.2553 4.7625 114.7 21.7 62.1 175
2021 09 22 12  04 18 30.983   -05 45 48.71  4.2547 4.7624 114.7 21.7 62.8 175
2021 09 22 13  04 18 30.963   -05 45 56.01  4.2541 4.7623 114.8 21.7 63.5 175
2021 09 22 14  04 18 30.942   -05 46 03.32  4.2535 4.7623 114.8 21.7 64.1 175
2021 09 22 15  04 18 30.919   -05 46 10.64  4.2529 4.7622 114.8 21.7 64.8 175